This is the latest recevied weather packets stored in our database for station/object NR5ON-13. If no packets are shown the sender has not sent any weather packets the latest 1 day(s).
| Time | Temp. | Humidity | Pressure | Rain* | Wind** | Luminosity | Snow |
|---|---|---|---|---|---|---|---|
| 1778039609 | 5.56° C | 89% | 1015.1 hPa | 0.51 mm | 0.45 m/s, 39° | - | - |
| 1778039314 | 5.56° C | 89% | 1015.1 hPa | 1.02 mm | 0.45 m/s, 63° | - | - |
| 1778039019 | 5.56° C | 88% | 1015.3 hPa | 1.52 mm | 0.45 m/s, 44° | - | - |
| 1778038708 | 5.56° C | 88% | 1015.4 hPa | 1.78 mm | 0 m/s | - | - |
| 1778038413 | 5.56° C | 87% | 1015.4 hPa | 1.78 mm | 0 m/s | - | - |
| 1778038117 | 6.11° C | 87% | 1015.5 hPa | 1.78 mm | 1.34 m/s, 337° | - | - |
| 1778037823 | 6.11° C | 87% | 1015.4 hPa | 1.78 mm | 0.89 m/s, 308° | - | - |
| 1778037507 | 6.11° C | 87% | 1015.4 hPa | 1.78 mm | 2.24 m/s, 338° | - | - |
| 1778037213 | 6.11° C | 87% | 1015.4 hPa | 1.52 mm | 0.89 m/s, 302° | - | - |
| 1778036918 | 6.11° C | 86% | 1015.2 hPa | 1.52 mm | 1.79 m/s, 313° | - | - |
| 1778036607 | 6.11° C | 85% | 1015 hPa | 1.52 mm | 1.79 m/s, 296° | - | - |
| 1778036312 | 6.67° C | 84% | 1015 hPa | 1.52 mm | 1.34 m/s, 302° | - | - |
| 1778036017 | 6.67° C | 83% | 1015.1 hPa | 1.27 mm | 2.24 m/s, 309° | - | - |
| 1778035706 | 7.22° C | 83% | 1015.2 hPa | 0.76 mm | 0.89 m/s, 244° | - | - |
| 1778035410 | 7.22° C | 83% | 1014.6 hPa | 0.25 mm | 0.45 m/s, 271° | - | - |
| 1778035116 | 7.22° C | 82% | 1013.4 hPa | 0 mm | 1.34 m/s, 291° | - | - |
| 1778034821 | 7.22° C | 82% | 1013.1 hPa | 0.25 mm | 0.45 m/s, 337° | - | - |
| 1778034507 | 7.22° C | 82% | 1013.2 hPa | 0.51 mm | 1.34 m/s, 341° | - | - |
| 1778034212 | 7.22° C | 84% | 1013 hPa | 1.52 mm | 0.45 m/s, 317° | - | - |
| 1778033917 | 7.22° C | 85% | 1013 hPa | 1.78 mm | 0.45 m/s, 345° | - | - |
| 1778033622 | 7.22° C | 85% | 1013.2 hPa | 1.78 mm | 0 m/s | - | - |
| 1778033308 | 7.22° C | 84% | 1013.2 hPa | 1.78 mm | 0 m/s | - | - |
| 1778033016 | 7.22° C | 83% | 1013.3 hPa | 1.78 mm | 0.89 m/s, 344° | - | - |
| 1778032720 | 7.22° C | 82% | 1013.1 hPa | 1.78 mm | 0 m/s | - | - |
| 1778032410 | 7.22° C | 82% | 1013.1 hPa | 1.78 mm | 0.89 m/s, 308° | - | - |
* Rain latest hour (hover to see other rain measurements)
** Current wind speed in m/s (hover to see current wind gust speed)